South Labrador Sea: Past 24 Hour Conditions

 

Argentia

08:30 AM NDT 31 October 2014
This table is a summary of hourly weather conditions for the past 24 hours.
Date / Time
(NDT)
Wind(knots) Conditions Visibility(km) Pressure(kPa) Air tempC) Relative humidity(%) Dew pointC)
31 October 2014
8:30 WNW 8 N/A N/A 101.1 8 80 5
7:30 WNW 7 N/A N/A 101.0 8 80 5
6:30 NW 10 N/A N/A 101.0 8 81 5
5:30 NW 12 N/A N/A 100.9 9 78 5
4:30 WNW 12 N/A N/A 100.8 9 84 7
3:30 W 10 N/A N/A 100.7 10 88 8
2:30 W 7 N/A N/A 100.7 10 90 9
1:30 W 15 N/A N/A 100.7 10 92 9
0:30 W 14 N/A N/A 100.7 10 95 9
30 October 2014
23:30 WSW 15 N/A N/A 100.7 10 97 10
22:30 WSW 12 N/A N/A 100.6 10 98 10
21:30 SW 11 N/A N/A 100.6 11 98 11
20:30 SSW 7 N/A N/A 100.6 11 98 11
19:30 SW 14 N/A N/A 100.6 12 98 11
18:30 SSW 15 gust 20 N/A N/A 100.6 12 98 11
17:30 SW 16 N/A N/A 100.5 12 98 12
16:30 SW 17 gust 22 N/A N/A 100.5 12 98 12
15:30 SSW 15 gust 21 N/A N/A 100.5 12 98 12
14:30 SSW 17 gust 23 N/A N/A 100.5 12 98 12
13:30 SSW 22 gust 28 N/A N/A 100.6 13 98 12
12:30 SSW 24 gust 29 N/A N/A 100.6 13 98 13
11:30 SSW 26 gust 32 N/A N/A 100.7 13 98 13
10:30 SSW 19 gust 24 N/A N/A 100.8 12 98 12
9:30 SSW 21 gust 27 N/A N/A 100.8 12 98 12
8:30 SW 19 gust 24 N/A N/A 100.8 12 98 12
 
Map of Atlantic - Newfoundland marine weather areas Southwestern Grand Banks - 44138 Banquereau - 44139 Tail of the Bank - 44140 Nickerson Bank - 44251 Northeast Burgeo Bank - 44255 Blanc-Sablon Airport Cap Whittle Chevery Natashquan Airport Heath Point Miscou Island Grand Étang Ingonish Beach North Mountain St.Paul Island J.A. Douglas McCurdy Sydney Airport Charlottetown Airport East Point North Cape Argentia Bonavista Burgeo Cape Race Corner Brook Daniel's Harbour Englee Ferolle Point La Scie Port aux Basques Rocky Harbour Sagona Island St. Anthony Airport St. John's Int'l Airport St. Lawrence Stephenville Airport Twillingate Winterland Wreckhouse Cartwright Airport Mary's Harbour Grates Cove Pool's Island Marticot Island Long Pond Îles de la Madeleine Airport
Legend: buoyBuoy land stationLand Station